Regional Weather Roundup
Issued by NWS Sterling, VA

Home | Current Version | Previous Version | Graphics & Text | Print | Product List | Glossary On
Versions: 1 2 3 4 5 6 7 8 9 10 11 12 13 14 15 16 17 18 19 20 21 22 23 24 25 26
000
ASUS41 KLWX 261311
RWRLWX

REGIONAL WEATHER ROUNDUP
NATIONAL WEATHER SERVICE BALTIMORE MD/WASHINGTON DC
900 AM EDT WED JUL 26 2017

Note: "FAIR" indicates few or no clouds below 12,000 feet
with no significant weather and/or obstructions to visibility.
 TC=TEMPERATURE CELSIUS

 * =Non NWS site. Station does not report precipitation (e.g. rain,
    snow, etc.), thunder, or fog.

DCZ001-MDZ009-015-VAZ040>042-051-053>054-261400-
WASHINGTON METRO

CITY           SKY/WX    TMP DP  RH WIND       PRES   REMARKS
WASHINGTON NAT PTSUNNY   75  67  76 VRB3      30.23R
DULLES         PTSUNNY   70  62  76 NE5       30.23F
ANDREWS AFB    SUNNY     73  66  79 CALM      30.22R
FT BELVOIR     CLOUDY    74  65  74 CALM      30.22S
QUANTICO       PTSUNNY   73  66  78 VRB3      30.23R
COLLEGE PARK*  SUNNY     70  65  85 CALM      30.23R
LEESBURG*      MOSUNNY   70  64  83 NE5       30.25F
MANASSAS*      CLOUDY    70  64  81 VRB3      30.24S
GAITHERSBURG*  CLOUDY    68  65  90 E3        30.25F

$$

MDZ006>007-011-014-261400-
BALTIMORE METRO

CITY           SKY/WX    TMP DP  RH WIND       PRES   REMARKS
BWI AIRPORT    PTSUNNY   71  68  90 VRB3      30.22S
MD SCIENCE CTR   N/A     72  67  84 MISG      30.23S
MARTIN STATE   CLOUDY    72  70  94 NE3       30.25R
ANNAPOLIS      PTSUNNY   74  71  91 E9        30.22R
FORT MEADE*    PTSUNNY   70  66  88 CALM      30.25S

$$

MDZ012-015-019>023-261400-
MARYLAND EASTERN SHORE

CITY           SKY/WX    TMP DP  RH WIND       PRES   REMARKS
OCEAN CITY     PTSUNNY   73  67  81 E5        30.21R
SALISBURY      MOSUNNY   74  68  81 E5        30.21R
BAY BRIDGE AP* CLOUDY    73  66  78 E3        30.22R
CAMBRIDGE*     SUNNY     73  66  78 E7        30.22R
EASTON*        PTSUNNY   75  66  73 E5        30.26R

$$

MDZ017>025-261400-
SOUTHERN MARYLAND

CITY           SKY/WX    TMP DP  RH WIND       PRES   REMARKS
PATUXENT RIVER PTSUNNY   76  68  76 E6        30.21R
ST INIGOES     PTSUNNY   77  68  73 VRB3      30.20R
LEONARDTOWN*   CLOUDY    73  64  73 CALM      30.23R

$$

MDZ003>005-261400-
NORTH CENTRAL MARYLAND

CITY           SKY/WX    TMP DP  RH WIND       PRES   REMARKS
FREDERICK*     CLOUDY    66  66 100 NE5       30.27F
HAGERSTOWN APT SUNNY     70  60  70 CALM      30.25F
WESTMINSTER*   CLOUDY    70  64  83 CALM      30.25F

$$

MDZ501>502-261400-
WESTERN MARYLAND

CITY           SKY/WX    TMP DP  RH WIND       PRES   REMARKS
OAKLAND*       SUNNY     59  55  88 SE10      30.25R
CUMBERLAND*    CLOUDY    61  61 100 CALM      30.30S

$$

VAZ025>031-261400-
SHENANDOAH VALLEY

CITY           SKY/WX    TMP DP  RH WIND       PRES   REMARKS
WINCHESTER*    SUNNY     64  61  88 E3        30.25S
FRONT ROYAL*   CLOUDY    63  61  94 CALM      30.25S
LURAY*         PTSUNNY   66  63  88 CALM      30.25F
NEW MARKET*    MOSUNNY   69  58  68 CALM      30.24F
STAUNTON*      CLOUDY    67  59  76 CALM      30.28S
WAYNESBORO*    CLOUDY    68  59  74 CALM      30.27S

$$

WVZ021-048>050-054>055-261400-
EASTERN WEST VIRGINIA PANHANDLE

CITY           SKY/WX    TMP DP  RH WIND       PRES   REMARKS
MARTINSBURG    SUNNY     68  60  75 E3        30.24F
PETERSBURG*    CLOUDY    64  60  85 CALM      30.25F

$$

VAZ036>039-050-261400-
CENTRAL FOOTHILLS

CITY           SKY/WX    TMP DP  RH WIND       PRES   REMARKS
CHARLOTTESVILL MOSUNNY   72  60  66 N3        30.24S
CULPEPER*      MOSUNNY   71  64  80 N5        30.24F
ORANGE*        MOSUNNY   68  61  77 N6        30.24S
GORDONSVILLE*  PTSUNNY   71  62  72 CALM      30.23F
WARRENTON*     MOSUNNY   72  61  67 N3        30.23S

$$

VAZ055>057-261400-
NORTH AND CENTRAL PIEDMONT

CITY           SKY/WX    TMP DP  RH WIND       PRES   REMARKS
FREDERICKSBRG* PTSUNNY   71  65  81 CALM      30.22R
STAFFORD*      CLOUDY    69  66  90 NW5       30.27S

$$

NCZ024-NYZ072-PAZ021-071-VAZ022-071-261400-
OTHER REGIONAL OBSERVATIONS

CITY           SKY/WX    TMP DP  RH WIND       PRES   REMARKS
NEW YORK CITY  SUNNY     70  55  59 E5        30.28R
PHILADELPHIA   CLOUDY    70  62  76 E6        30.26R
PITTSBURGH     MOSUNNY   64  62  93 E3        30.20S
ROANOKE        CLOUDY    70  59  68 SE3       30.28R
RICHMOND       MOSUNNY   76  66  71 CALM      30.21R
RALEIGH        MOSUNNY   76  65  68 E9        30.19R

$$

ANZ530>537-261400-
MARINE OBSERVATIONS

STATION/POSITION TIME  TEMP    WIND        PRES
                       AIR SEA DIR/SP/G
                 (UTC) (F)     (DEG/KT/KT) (MB)
THOMAS PT LIGHT  1300   72 81  110/  9/ 10   N/A
BALT KEY BRIDGE  1242   71      60/  9/ 10 1023.2R
COVE POINT       1242   72     100/  8/ 11 1023.7R
LEWISETTA        1242   74 83  260/  2/  3 1022.6R
SOLOMONS ISLAND  1242   74 83   70/  8/ 10   N/A
PINEY POINT      1242          260/  2/  3   N/A

$$





USA.gov is the U.S. government's official web portal to all federal, state and local government web resources and services.